Voltar ao catálogo

FENGYUN 1C DEB

AtivoSSO
NORAD 30214·DEBRIS·🇨🇳 China

Lançado May 10, 1999 de Taiyuan Satellite Launch Center

Loading…

Próximas Passagens (próximas 24 horas)

TLE

AtualizadoSource: Space-Track

Época: Sep 14, 2026, 11:49 UTC

1 30214U 99025VX  26257.49248660  .00002006  00000-0  75136-3 0  9999
2 30214  98.7093 336.8346 0019415 309.7415 172.5253 14.32771651 14478

Acompanhe FENGYUN 1C DEB em tempo real com AllMySat

Download on the App Store